Lid_Strength_Index
1 -0 -1 -1 -1 -0 -0 -0 0 -0 -1 0 -0 -0 0 0 0 -0 -0 -0 -0 -0 -1 -1 -1 -1 1 5 5 2 -0 2 3 3 4 5 6 6 8 7 7 8 7 7 6 7 6
0 1 0 -1 -1 -1 -1 -0 -0 0 -0 -0 -1 -0 0 0 0 -0 -0 -0 -0 -0 -0 -0 -1 -1 3 8 2 2 3 3 3 4 4 5 6 5 7 7 7 7 7 7 7 6 7
-0 -0 0 -0 -1 -1 -1 -1 -0 0 0 -0 -1 -0 -0 0 0 0 -0 -0 -0 -0 -0 -0 -1 1 5 6 1 2 3 3 3 3 5 4 4 5 6 7 6 7 8 7 7 7 7
0 -0 -0 -1 -0 -0 -0 -1 -1 -0 0 0 0 -0 -0 0 0 0 -0 -0 -0 -0 -0 -1 -1 2 6 3 1 3 3 3 3 3 3 4 4 5 5 6 7 8 8 10 7 7 7
1 1 1 0 0 0 0 -0 -0 -0 -0 1 1 1 0 -0 0 0 0 -1 -0 -0 -0 -1 2 4 7 1 3 2 3 4 4 4 4 4 4 6 6 8 9 8 11 10 9 7 7
0 2 1 1 1 1 1 1 1 1 0 0 1 1 1 1 1 1 0 -0 0 0 1 1 3 7 6 7 3 3 3 3 4 4 5 5 6 8 8 9 12 10 10 10 9 8 8
1 2 2 2 2 1 2 2 2 1 1 1 1 1 1 1 1 1 0 2 4 5 4 7 7 8 7 4 3 4 4 4 4 5 8 7 9 11 9 8 8 9 10 10 9 8 9
1 2 2 2 3 2 2 2 2 2 2 2 2 1 0 0 1 1 1 4 4 3 6 4 5 6 5 3 6 4 4 6 6 8 7 8 10 8 7 8 9 9 10 10 8 8 10
1 1 1 2 3 3 3 2 3 3 3 3 2 2 1 -0 0 0 1 4 2 3 7 6 4 6 5 5 7 6 4 6 7 8 8 9 9 7 8 9 10 9 10 10 10 9 9
2 2 2 2 2 2 4 3 3 1 3 3 3 3 2 1 2 1 3 1 1 3 10 9 7 5 5 5 8 4 4 6 7 9 8 9 8 9 9 10 9 11 8 9 10 11 13
2 2 2 2 2 2 2 2 3 2 2 2 1 3 2 1 2 3 2 2 2 3 20 8 9 6 7 7 7 7 4 5 8 8 8 10 9 9 10 9 8 10 9 9 10 11 11
2 2 2 2 3 3 3 3 2 3 2 2 2 1 2 2 1 1 1 2 4 13 19 10 8 9 10 9 10 8 7 5 6 8 8 8 8 8 8 9 8 8 9 9 9 10 15
1 1 2 2 2 3 3 3 3 2 2 3 2 1 1 2 3 -0 1 3 14 18 9 11 11 10 9 10 10 10 10 10 11 12 12 9 9 8 8 10 9 9 10 14 14 15 16
1 1 1 2 2 2 3 3 3 3 2 3 3 2 1 2 1 -1 2 9 17 12 11 9 10 10 11 10 10 10 10 12 10 10 11 12 13 10 8 9 10 10 10 13 18 16 14
1 1 1 1 2 2 2 3 3 3 2 2 2 2 2 1 1 1 6 15 15 11 9 10 10 11 11 11 10 11 11 11 10 10 13 12 12 9 8 8 8 10 12 9 12 14 15
-0 1 0 1 2 2 2 2 3 2 2 1 3 3 3 0 -0 3 9 13 11 8 8 8 12 10 12 11 11 11 11 9 10 9 9 11 13 11 10 9 8 9 8 12 12 18 18
-0 1 1 1 1 1 1 2 2 1 1 1 3 7 3 -0 -0 6 12 11 9 7 7 9 11 12 11 12 10 11 11 9 9 9 8 10 12 13 12 12 12 11 12 11 11 12 16
0 0 0 0 1 1 1 1 2 1 1 1 4 9 1 -0 8 7 10 8 6 7 6 7 8 9 10 10 12 11 11 9 8 8 11 9 11 14 13 10 9 10 11 11 13 14 13
0 0 -0 0 0 1 1 1 1 2 1 2 6 6 1 2 10 10 7 8 7 7 8 8 9 8 7 10 12 10 9 7 7 8 10 10 12 16 14 11 11 12 11 11 11 12 15
1 1 0 -0 0 0 1 1 1 1 1 2 5 10 6 5 5 7 9 9 9 6 7 7 8 7 9 10 9 11 10 8 7 8 8 8 12 14 16 12 10 13 12 11 12 14 14
1 1 0 0 0 0 0 0 1 1 1 2 6 8 6 10 9 8 7 8 9 9 7 6 8 8 9 11 11 12 10 9 8 7 8 10 15 13 12 11 11 11 11 11 12 12 14
1 1 1 1 0 0 1 0 0 0 0 4 8 8 6 7 7 8 8 9 9 8 8 9 9 8 8 10 9 10 9 9 9 8 8 9 14 12 14 11 11 13 12 11 11 11 11
2 1 1 1 1 0 0 0 0 1 0 4 4 5 6 8 9 9 10 9 8 7 7 6 7 8 9 8 6 6 7 7 8 10 11 11 13 14 17 12 13 16 13 12 11 10 10
2 2 1 1 1 0 0 -0 -0 -0 0 2 3 5 8 10 9 9 8 8 8 7 8 7 6 8 6 4 5 5 6 7 7 8 7 11 12 13 16 14 20 12 8 9 10 10 9
3 2 2 2 1 1 0 -0 -1 -1 -0 2 1 4 8 10 8 8 8 8 8 7 8 7 7 6 4 6 10 11 11 12 11 9 8 8 11 14 16 17 14 12 10 10 11 11 7
2 2 2 2 1 1 0 -1 -1 -1 -1 2 1 1 5 9 9 7 8 7 9 9 9 8 6 5 5 8 11 15 16 13 13 12 9 9 9 13 14 18 19 12 9 8 8 14 9
3 3 3 2 2 1 1 -1 -1 -1 -1 1 3 0 4 8 7 6 9 9 7 8 9 9 9 9 7 10 12 13 14 11 15 14 14 13 13 15 15 17 14 9 8 7 15 13 10
3 3 3 2 2 1 1 0 -1 -1 -2 -0 2 1 3 7 6 5 6 7 7 7 9 9 9 9 9 11 12 12 12 11 12 12 12 12 13 14 14 16 18 7 8 13 10 8 9
3 3 3 2 2 1 1 1 -1 -1 -1 -1 3 1 1 5 6 3 4 4 4 4 5 8 8 8 7 9 10 9 11 10 11 14 9 13 11 12 12 12 8 7 7 6 6 8 8